Regional Weather Roundup
Issued by NWS

Home | Current Version | Previous Version | Text Only | Print | Product List | Glossary On
Versions: 1 2 3 4 5 6 7 8 9 10 11 12 13 14 15 16 17 18 19 20 21 22 23 24 25 26 27
000
ASUS45 KREV 170310
RWRNV
NEVADA REGIONAL WEATHER ROUNDUP
NATIONAL WEATHER SERVICE RENO NV
800 PM PDT WED APR 16 2014

NOTE: "FAIR" INDICATES FEW OR NO CLOUDS BELOW 12,000 FEET WITH NO
SIGNIFICANT WEATHER AND/OR OBSTRUCTIONS TO VISIBILITY.

NVZ001-003-004-170400-
WESTERN NEVADA

CITY           SKY/WX    TMP DP  RH WIND       PRES   REMARKS
RENO           PTCLDY    67  25  20 N12       29.93R
CARSON CITY    FAIR      64  21  19 NE8       29.94R
MINDEN         CLEAR     63  37  39 NW7       29.94R
PYRAMID LAKE     N/A     63 N/A N/A S2          N/A
FALLON         PTCLDY    61  20  20 NE8       29.91R
LOVELOCK       CLEAR     61  22  22 NE6       29.92R
HAWTHORNE      CLEAR     64  25  22 W8        29.93R
$$

NVZ002-CAZ072-073-170400-
NORTHERN AND CENTRAL SIERRA

CITY           SKY/WX    TMP DP  RH WIND       PRES   REMARKS
S. LAKE TAHOE  CLEAR     53  38  56 CALM      30.01R
TRUCKEE        CLEAR     54  39  58 CALM      30.01R
SQUAW VLY 8000   N/A     45  37  76 VRB2        N/A
BLUE CANYON    CLEAR     57  40  52 CALM      30.00R
MAMMOTH LAKES  FAIR      55  32  41 W8        30.01R
BRIDGEPORT     FAIR      55  24  30 N8        29.99R
$$

NVZ030-031-036-170400-
NORTHERN NEVADA

CITY           SKY/WX    TMP DP  RH WIND       PRES   REMARKS
ELKO           MOCLDY    52  28  39 S5        29.97S
WINNEMUCCA     CLEAR     56  26  31 NE5       29.95S
WENDOVER       CLEAR     54  18  24 CALM      29.98R
$$

NVZ035-037-170400-
CENTRAL NEVADA

CITY           SKY/WX    TMP DP  RH WIND       PRES   REMARKS
ELY            CLEAR     47  24  40 NW5       30.01R
$$

NVZ013-014-170400-
SOUTH CENTRAL NEVADA

CITY           SKY/WX    TMP DP  RH WIND       PRES   REMARKS
TONOPAH        MOCLDY    63  18  17 N16       29.94R
$$

NVZ017-020-022-170400-
SOUTHERN NEVADA

CITY           SKY/WX    TMP DP  RH WIND       PRES   REMARKS
LAS VEGAS      PTCLDY    81  18   9 SE7       29.69R
N. LAS VEGAS   CLEAR     79  17  10 E5        29.73R
NELLIS AFB     CLEAR     81  22  11 E6        29.71R
HENDERSON      CLEAR     78  21  12 NW3       29.75R
MERCURY        CLEAR     73  17  12 N6        29.78R
$$



USA.gov is the U.S. government's official web portal to all federal, state and local government web resources and services.